• In Deutschland
  • Länderverzeichnis
  • Für 7 Tage
  • Wassertemperatur
  • Satellitenkarten
  • Wetterkarte
  • Widgets
  • user-avatar
    Anmelden

    Stündliche Wetter Patmos

    Heute, 23 Juli, Montag

    Zeit Temperatur Niederschläge Wind Luftdruck Luftfeuchtigkeit
    00:00 +27°C° 0 mm 3 m/S 754 mmHg 65%
    01:00 +27°C° 0 mm 2 m/S 754 mmHg 65%
    02:00 +27°C° 0 mm 2 m/S 753 mmHg 61%
    03:00 +27°C° 0 mm 2 m/S 753 mmHg 60%
    04:00 +27°C° 0 mm 1 m/S 753 mmHg 59%
    05:00 +26°C° 0 mm 1 m/S 753 mmHg 58%
    06:00 +29°C° 0 mm 1 m/S 753 mmHg 50%
    07:00 +31°C° 0 mm 1 m/S 753 mmHg 43%
    08:00 +35°C° 0 mm 2 m/S 753 mmHg 36%
    09:00 +36°C° 0 mm 2 m/S 752 mmHg 33%
    10:00 +37°C° 0 mm 3 m/S 752 mmHg 30%
    11:00 +39°C° 0 mm 3 m/S 752 mmHg 27%
    12:00 +39°C° 0 mm 3 m/S 752 mmHg 27%
    13:00 +39°C° 0 mm 3 m/S 752 mmHg 27%
    14:00 +40°C° 0 mm 3 m/S 752 mmHg 27%
    15:00 +39°C° 0 mm 3 m/S 752 mmHg 28%
    16:00 +38°C° 0 mm 2 m/S 751 mmHg 29%
    17:00 +38°C° 0 mm 2 m/S 751 mmHg 30%
    18:00 +35°C° 0 mm 3 m/S 751 mmHg 36%
    19:00 +33°C° 0 mm 3 m/S 751 mmHg 42%
    20:00 +30°C° 0 mm 4 m/S 751 mmHg 49%
    21:00 +29°C° 0 mm 4 m/S 750 mmHg 50%
    22:00 +29°C° 0 mm 4 m/S 750 mmHg 51%
    23:00 +29°C° 0 mm 4 m/S 750 mmHg 53%

    Morgen, 24 Juli, Dienstag

    Zeit Temperatur Niederschläge Wind Luftdruck Luftfeuchtigkeit
    00:00 +28°C° 0 mm 4 m/S 750 mmHg 53%
    01:00 +28°C° 0 mm 4 m/S 750 mmHg 53%
    02:00 +27°C° 0 mm 3 m/S 749 mmHg 53%
    03:00 +27°C° 0 mm 3 m/S 749 mmHg 55%
    04:00 +27°C° 0 mm 3 m/S 749 mmHg 57%
    05:00 +26°C° 0 mm 3 m/S 749 mmHg 58%
    06:00 +28°C° 0 mm 3 m/S 749 mmHg 56%
    07:00 +30°C° 0 mm 3 m/S 749 mmHg 54%
    08:00 +33°C° 0 mm 3 m/S 749 mmHg 51%
    09:00 +34°C° 0 mm 3 m/S 749 mmHg 45%
    10:00 +36°C° 0 mm 4 m/S 749 mmHg 39%
    11:00 +37°C° 0 mm 4 m/S 749 mmHg 32%
    12:00 +37°C° 0 mm 4 m/S 749 mmHg 32%
    13:00 +37°C° 0 mm 5 m/S 749 mmHg 32%
    14:00 +39°C° 0 mm 6 m/S 749 mmHg 31%
    15:00 +38°C° 0 mm 6 m/S 749 mmHg 34%
    16:00 +36°C° 0 mm 6 m/S 749 mmHg 36%
    17:00 +35°C° 0 mm 6 m/S 749 mmHg 39%
    18:00 +33°C° 0 mm 6 m/S 750 mmHg 49%
    19:00 +30°C° 0 mm 5 m/S 750 mmHg 59%
    20:00 +28°C° 0 mm 5 m/S 750 mmHg 69%
    21:00 +27°C° 0 mm 5 m/S 750 mmHg 74%
    22:00 +26°C° 0 mm 5 m/S 751 mmHg 78%
    23:00 +26°C° 0 mm 5 m/S 751 mmHg 83%

    übermorgen, 25 Juli, Mittwoch

    Zeit Temperatur Niederschläge Wind Luftdruck Luftfeuchtigkeit
    00:00 +25°C° 0 mm 5 m/S 751 mmHg 84%
    01:00 +25°C° 0 mm 5 m/S 751 mmHg 85%
    02:00 +25°C° 0 mm 5 m/S 751 mmHg 86%
    03:00 +23°C° 0 mm 5 m/S 751 mmHg 87%
    04:00 +23°C° 0 mm 5 m/S 751 mmHg 88%
    05:00 +23°C° 0 mm 5 m/S 751 mmHg 89%
    06:00 +25°C° 0 mm 4 m/S 752 mmHg 80%
    07:00 +27°C° 0 mm 4 m/S 752 mmHg 70%
    08:00 +29°C° 0 mm 4 m/S 752 mmHg 61%
    09:00 +30°C° 0 mm 4 m/S 752 mmHg 54%
    10:00 +33°C° 0 mm 4 m/S 753 mmHg 47%
    11:00 +34°C° 0 mm 4 m/S 753 mmHg 40%
    12:00 +35°C° 0 mm 4 m/S 753 mmHg 39%
    13:00 +36°C° 0 mm 4 m/S 753 mmHg 38%
    14:00 +36°C° 0 mm 5 m/S 753 mmHg 37%
    15:00 +35°C° 0 mm 5 m/S 753 mmHg 40%
    16:00 +34°C° 0 mm 5 m/S 752 mmHg 43%
    17:00 +34°C° 0 mm 5 m/S 752 mmHg 46%
    18:00 +32°C° 0 mm 4 m/S 753 mmHg 54%
    19:00 +29°C° 0 mm 4 m/S 753 mmHg 62%
    20:00 +27°C° 0 mm 4 m/S 753 mmHg 70%
    21:00 +27°C° 0 mm 4 m/S 753 mmHg 73%
    22:00 +26°C° 0 mm 3 m/S 753 mmHg 76%
    23:00 +26°C° 0 mm 3 m/S 753 mmHg 79%

    26 Juli, Donnerstag

    Zeit Temperatur Niederschläge Wind Luftdruck Luftfeuchtigkeit
    00:00 +25°C° 0 mm 3 m/S 753 mmHg 79%
    01:00 +25°C° 0 mm 3 m/S 753 mmHg 79%
    02:00 +25°C° 0 mm 3 m/S 753 mmHg 80%
    03:00 +24°C° 0 mm 3 m/S 753 mmHg 80%
    04:00 +24°C° 0 mm 3 m/S 753 mmHg 79%
    05:00 +24°C° 0 mm 3 m/S 753 mmHg 79%
    06:00 +26°C° 0 mm 2 m/S 753 mmHg 71%
    07:00 +28°C° 0 mm 2 m/S 754 mmHg 62%
    08:00 +30°C° 0 mm 2 m/S 754 mmHg 54%
    09:00 +31°C° 0 mm 2 m/S 754 mmHg 48%
    10:00 +34°C° 0 mm 2 m/S 754 mmHg 42%
    11:00 +36°C° 0 mm 2 m/S 754 mmHg 36%
    12:00 +36°C° 0 mm 3 m/S 754 mmHg 35%
    13:00 +37°C° 0 mm 3 m/S 754 mmHg 35%
    14:00 +37°C° 0 mm 4 m/S 754 mmHg 34%
    15:00 +36°C° 0 mm 4 m/S 754 mmHg 38%
    16:00 +35°C° 0 mm 4 m/S 754 mmHg 41%
    17:00 +34°C° 0 mm 4 m/S 754 mmHg 45%
    18:00 +32°C° 0 mm 4 m/S 754 mmHg 54%
    19:00 +29°C° 0 mm 3 m/S 754 mmHg 63%
    20:00 +27°C° 0 mm 3 m/S 754 mmHg 72%
    21:00 +27°C° 0 mm 3 m/S 754 mmHg 75%
    22:00 +26°C° 0 mm 2 m/S 755 mmHg 78%
    23:00 +26°C° 0 mm 2 m/S 755 mmHg 81%

    27 Juli, Freitag

    Zeit Temperatur Niederschläge Wind Luftdruck Luftfeuchtigkeit
    00:00 +26°C° 0 mm 2 m/S 754 mmHg 82%
    01:00 +25°C° 0 mm 2 m/S 754 mmHg 83%
    02:00 +25°C° 0 mm 2 m/S 754 mmHg 85%
    03:00 +25°C° 0 mm 2 m/S 754 mmHg 85%
    04:00 +25°C° 0 mm 3 m/S 754 mmHg 86%
    05:00 +24°C° 0 mm 3 m/S 754 mmHg 87%
    06:00 +26°C° 0 mm 2 m/S 754 mmHg 78%
    07:00 +28°C° 0 mm 2 m/S 754 mmHg 70%
    08:00 +30°C° 0 mm 2 m/S 754 mmHg 61%
    09:00 +33°C° 0 mm 3 m/S 754 mmHg 54%
    10:00 +35°C° 0 mm 3 m/S 754 mmHg 46%
    11:00 +36°C° 0 mm 3 m/S 754 mmHg 38%
    12:00 +37°C° 0 mm 4 m/S 754 mmHg 38%
    13:00 +37°C° 0 mm 4 m/S 754 mmHg 37%
    14:00 +39°C° 0 mm 5 m/S 753 mmHg 36%
    15:00 +37°C° 0 mm 5 m/S 753 mmHg 40%
    16:00 +36°C° 0 mm 6 m/S 753 mmHg 43%
    17:00 +36°C° 0 mm 6 m/S 753 mmHg 46%
    18:00 +34°C° 0 mm 6 m/S 753 mmHg 53%
    19:00 +32°C° 0 mm 6 m/S 753 mmHg 60%
    20:00 +29°C° 0 mm 5 m/S 753 mmHg 67%
    21:00 +29°C° 0 mm 5 m/S 753 mmHg 69%
    22:00 +28°C° 0 mm 5 m/S 753 mmHg 71%
    23:00 +27°C° 0 mm 5 m/S 753 mmHg 73%

    28 Juli, Samstag

    Zeit Temperatur Niederschläge Wind Luftdruck Luftfeuchtigkeit
    00:00 +27°C° 0 mm 5 m/S 753 mmHg 73%
    01:00 +27°C° 0 mm 5 m/S 753 mmHg 73%
    02:00 +26°C° 0 mm 6 m/S 752 mmHg 74%
    03:00 +26°C° 0 mm 5 m/S 752 mmHg 74%
    04:00 +26°C° 0 mm 5 m/S 752 mmHg 73%
    05:00 +26°C° 0 mm 5 m/S 752 mmHg 73%
    06:00 +28°C° 0 mm 5 m/S 752 mmHg 65%
    07:00 +29°C° 0 mm 5 m/S 752 mmHg 57%
    08:00 +32°C° 0 mm 5 m/S 752 mmHg 49%
    09:00 +34°C° 0 mm 6 m/S 752 mmHg 41%
    10:00 +36°C° 0 mm 6 m/S 752 mmHg 34%
    11:00 +39°C° 0 mm 6 m/S 752 mmHg 27%
    12:00 +40°C° 0 mm 6 m/S 752 mmHg 26%
    13:00 +41°C° 0 mm 7 m/S 752 mmHg 24%
    14:00 +43°C° 0 mm 7 m/S 751 mmHg 23%
    15:00 +41°C° 0 mm 8 m/S 751 mmHg 27%
    16:00 +40°C° 0 mm 8 m/S 751 mmHg 30%
    17:00 +39°C° 0 mm 8 m/S 751 mmHg 34%
    18:00 +37°C° 0 mm 8 m/S 751 mmHg 41%
    19:00 +34°C° 0 mm 7 m/S 751 mmHg 49%
    20:00 +32°C° 0 mm 7 m/S 751 mmHg 57%
    21:00 +30°C° 0 mm 7 m/S 751 mmHg 59%
    22:00 +29°C° 0 mm 7 m/S 751 mmHg 62%
    23:00 +28°C° 0 mm 6 m/S 751 mmHg 64%
    Mehr zeigen